Location: Cactus School
(34.5700°N, 118.0931°W)
Time: 10:08:46
(UTC-07:00)

S-56A Canister/Altair - Pass Details

Date: 13 April 2024
Orbit: 638 x 2488 km, 38.9° (Epoch: 29 May)

Event Time Altitude Azimuth Distance (km) Brightness Sun altitude
Rises 21:34:00 0° 275° (W) 4,017 12.2 -25.5°
Reaches altitude 10° 21:36:24 10° 278° (W) 3,260 11.5 -26.0°
Maximum altitude 21:44:52 70° 2° (N) 1,781 9.3 -27.4°
Enters shadow 21:52:17 28° 79° (ENE) 3,262 10.3 -28.6°
Drops below altitude 10° 21:57:39 10° 85° (E) 4,763 - -29.5°
Sets 22:01:55 0° 88° (E) 5,948 - -30.2°
